Location: Palau
(42.3086°N, 3.1507°E)
Time: 13:35:06
(UTC+00:00)

X-37B - Pass Details

Date: 15 March 2021
Orbit: 380 x 394 km, 45.0° (Epoch: 07 April)

Event Time Altitude Azimuth Distance (km) Brightness Sun altitude
Rises 18:33:02 0° 252° (WSW) 2,261 5.9 -8.0°
Reaches altitude 10° 18:35:05 10° 253° (WSW) 1,412 4.7 -8.4°
Maximum altitude 18:38:16 85° 344° (NNW) 394 0.6 -9.0°
Enters shadow 18:41:11 12° 71° (ENE) 1,307 2.7 -9.5°
